Redmond, OR

12:02 AM PST on November 17, 2019 (GMT -0800)
Roberts Field Airport

Weather History for KRDM - September, 2019

Change the Weather History Date:

Tuesday, September 24, 2019

  Actual Average Record
Temperature  
Mean Temperature 61 °F 55 °F  
Max Temperature 76 °F 73 °F 94 °F (2011)
Min Temperature 45 °F 36 °F 16 °F (1961)
Degree Days  
Heating Degree Days 4 11  
Month to date heating degree days 122 181  
Since 1 July heating degree days 169 330  
Cooling Degree Days 0 0  
Month to date cooling degree days 37 14  
Year to date cooling degree days 293 220  
Growing Degree Days 12 (Base 50)    
Moisture  
Dew Point 44 °F    
Average Humidity 58    
Maximum Humidity 80    
Minimum Humidity 35    
Precipitation  
Precipitation 0.00 in 0.01 in 0.27 in (2014)
Month to date precipitation 1.31 0.32  
Year to date precipitation 8.77 6.05  
Sea Level Pressure  
Sea Level Pressure 30.22 in    
Wind  
Wind Speed 6 mph (NW)    
Max Wind Speed 15 mph    
Max Gust Speed 19 mph    
Visibility 10 miles    
Events      
T = Trace of Precipitation, MM = Missing Value Source: NWS Daily Summary

Daily Weather History Graph

Daily Weather History Graph

Search for Another Location

Airport or City:

Astronomy

Sep. 24, 2019 Rise Set
Actual Time 6:53 AM PDT 6:58 PM PDT
Civil Twilight 6:25 AM PDT 7:27 PM PDT
Nautical Twilight 5:51 AM PDT 8:01 PM PDT
Astronomical Twilight 5:16 AM PDT 8:35 PM PDT
Moon 1:31 AM PDT (9/24) 5:00 PM PDT (9/24)
Length of Visible Light 13h 02m
Length of Day
12h 04m
Waning Crescent, 22% of the Moon is Illuminated
Sep 24
Waning Crescent
Sep 28
New
Oct 5
First Quarter
Oct 13
Full
Oct 21
Last Quarter

Hourly Weather History & Observations

Time (PDT) Temp. Dew Point Humidity Pressure Visibility Wind Dir Wind Speed Gust Speed Precip Events Conditions
12:56 AM 52.0 °F 41.0 °F 66% 30.22 in 10.0 mi South 4.6 mph - N/A   Clear
1:56 AM 52.0 °F 42.1 °F 69% 30.23 in 10.0 mi SSE 5.8 mph - N/A   Mostly Cloudy
2:56 AM 51.1 °F 42.1 °F 71% 30.23 in 10.0 mi ESE 4.6 mph - N/A   Partly Cloudy
3:56 AM 53.1 °F 42.1 °F 66% 30.23 in 10.0 mi SSE 5.8 mph - N/A   Overcast
4:56 AM 52.0 °F 39.9 °F 63% 30.24 in 10.0 mi SSE 4.6 mph - N/A   Partly Cloudy
5:56 AM 50.0 °F 41.0 °F 71% 30.24 in 10.0 mi ENE 4.6 mph - N/A   Clear
6:56 AM 48.0 °F 42.1 °F 80% 30.26 in 10.0 mi Calm Calm - N/A   Clear
7:56 AM 53.1 °F 44.1 °F 71% 30.27 in 10.0 mi Calm Calm - N/A   Clear
8:56 AM 61.0 °F 46.9 °F 60% 30.26 in 10.0 mi SE 6.9 mph - N/A   Clear
9:56 AM 66.9 °F 50.0 °F 54% 30.25 in 10.0 mi Variable 5.8 mph - N/A   Clear
10:56 AM 71.1 °F 51.1 °F 49% 30.25 in 10.0 mi West 5.8 mph - N/A   Clear
11:56 AM 72.0 °F 51.1 °F 48% 30.24 in 10.0 mi North - - N/A   Mostly Cloudy
11:58 AM 72.0 °F 51.1 °F 48% 30.28 in 10.0 mi NNW 4.6 mph - N/A   Mostly Cloudy
12:56 PM 75.0 °F 50.0 °F 41% 30.22 in 10.0 mi NNW 4.6 mph - N/A   Partly Cloudy
1:56 PM 73.9 °F 48.9 °F 41% 30.20 in 10.0 mi NNW 9.2 mph 17.3 mph N/A   Clear
2:56 PM 75.9 °F 48.9 °F 38% 30.19 in 10.0 mi NW 12.7 mph 16.1 mph N/A   Clear
3:56 PM 75.9 °F 48.0 °F 37% 30.17 in 10.0 mi WNW 11.5 mph - N/A   Clear
4:56 PM 75.9 °F 48.0 °F 37% 30.17 in 10.0 mi NW 9.2 mph - N/A   Clear
5:56 PM 73.0 °F 46.0 °F 38% 30.17 in 10.0 mi WNW 12.7 mph - N/A   Clear
6:56 PM 68.0 °F 39.0 °F 35% 30.20 in 10.0 mi NW 9.2 mph - N/A   Clear
7:56 PM 64.9 °F 41.0 °F 42% 30.20 in 10.0 mi NNW 6.9 mph - N/A   Clear
8:56 PM 63.0 °F 36.0 °F 37% 30.19 in 10.0 mi NW 4.6 mph - N/A   Clear
9:56 PM 55.9 °F 41.0 °F 57% 30.19 in 10.0 mi Calm Calm - N/A   Clear
10:56 PM 48.9 °F 39.9 °F 71% 30.19 in 10.0 mi Calm Calm - N/A   Clear
11:56 PM 50.0 °F 39.0 °F 66% 30.19 in 10.0 mi ESE 3.5 mph - N/A   Clear